EZY282J EGGP-EGAA

Flight info

Callsign EZY282J
Flight time N/A
Altitude 22000
Route WAL M146 IPSET P6 BELZU
Aircraft A320/M-SDE2E3FGHIJ1RWXYZ/LB1

Departure

Time 2026-05-05 12:37
Airport Liverpool John Lennon Airport (EGGP)

Arrival

Time N/A
Airport Belfast International Airport (EGAA)
Time Latitude Longitude Altitude Speed Heading
2026-05-05 12:10 53.33630 -2.85195 89 ft 0 kts 265°
2026-05-05 12:28 53.33631 -2.85178 93 ft 4 kts 263°
2026-05-05 12:29 53.33636 -2.85134 91 ft 4 kts 253°
2026-05-05 12:29 53.33646 -2.85094 90 ft 4 kts 227°
2026-05-05 12:29 53.33664 -2.85076 91 ft 1 kts 176°
2026-05-05 12:33 53.33644 -2.85074 91 ft 10 kts 176°
2026-05-05 12:33 53.33569 -2.85066 91 ft 10 kts 176°
2026-05-05 12:33 53.33530 -2.84998 89 ft 12 kts 93°
2026-05-05 12:33 53.33536 -2.84829 89 ft 14 kts 85°
2026-05-05 12:34 53.33544 -2.84671 89 ft 14 kts 85°
2026-05-05 12:34 53.33554 -2.84459 93 ft 19 kts 85°
2026-05-05 12:34 53.33566 -2.84231 89 ft 20 kts 85°
2026-05-05 12:34 53.33577 -2.83997 89 ft 21 kts 85°
2026-05-05 12:35 53.33588 -2.83745 89 ft 21 kts 86°
2026-05-05 12:35 53.33597 -2.83536 93 ft 17 kts 85°
2026-05-05 12:35 53.33592 -2.83374 90 ft 13 kts 110°
2026-05-05 12:35 53.33531 -2.83298 89 ft 11 kts 170°
2026-05-05 12:36 53.33457 -2.83299 89 ft 10 kts 201°
2026-05-05 12:36 53.33437 -2.83378 93 ft 1 kts 265°
2026-05-05 12:36 53.33435 -2.83416 92 ft 24 kts 265°
2026-05-05 12:36 53.33403 -2.84139 89 ft 97 kts 265°
2026-05-05 12:37 53.33338 -2.85594 104 ft 150 kts 266°
2026-05-05 12:37 53.33243 -2.87353 756 ft 152 kts 271°
2026-05-05 12:37 53.33147 -2.89099 1507 ft 154 kts 270°
2026-05-05 12:37 53.33053 -2.91009 1933 ft 175 kts 271°
2026-05-05 12:38 53.33234 -2.93121 2280 ft 194 kts 292°
2026-05-05 12:38 53.33847 -2.95291 2674 ft 218 kts 299°
2026-05-05 12:38 53.34564 -2.97684 3234 ft 239 kts 299°
2026-05-05 12:38 53.35330 -3.00250 3925 ft 247 kts 300°
2026-05-05 12:39 53.36099 -3.02859 4768 ft 251 kts 299°
2026-05-05 12:39 53.36859 -3.05446 5668 ft 256 kts 299°
2026-05-05 12:39 53.37674 -3.08225 6523 ft 264 kts 298°
2026-05-05 12:39 53.38475 -3.10958 7400 ft 266 kts 298°
2026-05-05 12:40 53.39392 -3.13701 8310 ft 267 kts 310°
2026-05-05 12:40 53.40642 -3.15944 9159 ft 270 kts 315°
2026-05-05 12:40 53.42000 -3.18261 9960 ft 277 kts 314°
2026-05-05 12:40 53.43386 -3.20611 10426 ft 295 kts 314°
2026-05-05 12:41 53.44885 -3.23150 10808 ft 313 kts 314°
2026-05-05 12:41 53.46440 -3.25795 11446 ft 322 kts 314°
2026-05-05 12:41 53.48027 -3.28501 12212 ft 326 kts 314°
2026-05-05 12:41 53.49618 -3.31218 13033 ft 328 kts 314°
2026-05-05 12:42 53.51217 -3.33953 13840 ft 330 kts 314°
2026-05-05 12:42 53.52842 -3.36738 14483 ft 335 kts 314°
2026-05-05 12:42 53.54452 -3.39505 15159 ft 337 kts 313°
2026-05-05 12:42 53.56102 -3.42337 15788 ft 342 kts 313°
2026-05-05 12:43 53.57753 -3.45240 16410 ft 345 kts 308°
2026-05-05 12:43 53.59179 -3.48484 17048 ft 348 kts 304°
2026-05-05 12:43 53.60586 -3.51841 17642 ft 353 kts 303°
2026-05-05 12:43 53.62007 -3.55226 18287 ft 356 kts 303°
2026-05-05 12:44 53.63445 -3.58650 18834 ft 360 kts 303°
2026-05-05 12:44 53.64897 -3.62107 19393 ft 363 kts 303°
2026-05-05 12:44 53.66363 -3.65599 19952 ft 366 kts 303°
2026-05-05 12:44 53.67836 -3.69107 20483 ft 369 kts 303°
2026-05-05 12:45 53.69327 -3.72662 21060 ft 372 kts 303°
2026-05-05 12:45 53.70822 -3.76239 21609 ft 374 kts 303°
2026-05-05 12:45 53.72323 -3.79837 21983 ft 377 kts 303°
2026-05-05 12:45 53.73818 -3.83431 22055 ft 367 kts 302°
2026-05-05 12:46 53.75259 -3.86898 22062 ft 357 kts 302°
2026-05-05 12:46 53.76678 -3.90315 22062 ft 354 kts 302°
2026-05-05 12:46 53.78092 -3.93719 22062 ft 353 kts 302°
2026-05-05 12:46 53.79499 -3.97121 22065 ft 353 kts 302°
2026-05-05 12:47 53.80902 -4.00521 22066 ft 353 kts 302°
2026-05-05 12:47 53.82309 -4.03937 22066 ft 356 kts 302°
2026-05-05 12:47 53.83758 -4.07474 22067 ft 375 kts 302°
2026-05-05 12:47 53.85278 -4.11184 22068 ft 392 kts 302°
2026-05-05 12:48 53.86868 -4.15066 22070 ft 406 kts 302°
2026-05-05 12:48 53.88507 -4.19066 22068 ft 419 kts 302°
2026-05-05 12:48 53.90196 -4.23189 22072 ft 432 kts 303°
2026-05-05 12:48 53.91926 -4.27416 22076 ft 440 kts 303°
2026-05-05 12:49 53.93676 -4.31687 22075 ft 441 kts 303°
2026-05-05 12:49 53.95425 -4.35968 22077 ft 441 kts 303°
2026-05-05 12:49 53.97168 -4.40250 22080 ft 441 kts 303°
2026-05-05 12:49 53.98908 -4.44541 22082 ft 441 kts 303°
2026-05-05 12:50 54.00648 -4.48838 22084 ft 441 kts 303°
2026-05-05 12:50 54.02494 -4.53012 22082 ft 443 kts 310°
2026-05-05 12:50 54.04572 -4.56885 22084 ft 443 kts 310°
2026-05-05 12:50 54.06650 -4.60737 22084 ft 443 kts 310°
2026-05-05 12:51 54.08691 -4.64515 22081 ft 443 kts 310°
2026-05-05 12:51 54.10825 -4.68477 22082 ft 443 kts 310°
2026-05-05 12:51 54.12907 -4.72351 22080 ft 443 kts 310°
2026-05-05 12:51 54.14972 -4.76204 22075 ft 432 kts 310°
2026-05-05 12:52 54.16963 -4.79924 22070 ft 416 kts 310°
2026-05-05 12:52 54.18877 -4.83511 21793 ft 403 kts 310°
2026-05-05 12:52 54.20725 -4.86980 21649 ft 387 kts 310°
2026-05-05 12:52 54.22500 -4.90310 21484 ft 374 kts 310°